GFSGL_250_spd_000.txt.gz
Wind_Speed
85 87 86 88 94 92 92 95 95 94 95 95 95 98 99 100 102 103 106 105 103 104 106 106 102 102 107 116 118 116 114 114 115 95 97 96 100 98 93 87 88 88 89
83 86 91 94 93 96 95 95 95 97 98 98 100 99 100 103 104 106 104 103 99 100 103 105 104 107 112 116 116 114 109 108 113 109 103 105 103 88 78 80 84 84 92
92 95 99 95 98 100 99 97 97 99 100 103 105 104 104 107 106 104 100 98 97 100 102 103 111 109 110 112 109 103 101 105 109 106 103 104 102 90 70 69 73 78 86
101 104 101 97 101 103 100 99 102 102 103 108 109 110 110 107 103 98 94 96 97 100 100 99 102 101 101 99 98 99 101 105 109 108 105 97 97 83 60 55 58 70 77
104 106 105 102 101 102 105 107 106 107 109 111 111 110 108 104 98 98 98 97 96 93 89 91 94 95 95 94 96 99 102 109 111 107 104 94 86 77 57 50 55 65 72
108 108 104 107 106 107 112 113 115 112 112 109 105 102 100 100 98 99 98 95 91 86 88 90 89 91 90 89 95 103 107 113 108 101 90 82 76 69 55 50 57 63 66
111 110 112 113 112 115 118 122 122 116 108 101 99 97 96 94 96 97 95 90 86 88 91 89 87 85 86 90 93 101 109 114 108 94 82 76 71 66 55 50 56 59 63
119 118 117 119 119 122 119 114 111 105 102 102 97 98 96 95 94 95 93 90 90 90 90 89 84 82 90 93 92 98 106 107 101 90 78 74 72 64 53 50 55 57 59
125 118 123 126 125 116 112 108 104 106 107 104 100 102 100 102 100 98 95 92 91 91 90 85 83 85 93 95 93 99 104 96 91 79 71 70 68 63 53 48 53 53 60
131 130 125 123 119 109 106 106 102 102 101 103 104 104 106 104 102 98 95 92 88 90 89 84 83 90 91 93 95 99 96 86 83 76 68 66 63 59 53 48 51 54 60
130 126 128 115 108 105 105 101 99 100 100 105 108 106 104 103 99 99 95 92 91 90 88 80 84 89 92 91 96 99 88 79 76 73 67 61 58 55 53 45 49 53 59
130 124 117 113 109 107 105 105 104 102 102 102 102 103 102 101 98 94 92 92 90 89 84 82 85 87 86 89 94 90 83 76 72 69 66 55 53 51 48 43 47 53 59
116 115 112 113 112 110 109 107 105 102 101 101 102 103 98 97 95 92 90 89 90 86 83 82 84 81 82 87 92 79 75 74 69 65 61 52 49 47 45 44 47 53 60
114 114 114 112 113 110 108 105 102 100 101 101 100 97 98 94 92 91 89 89 86 84 84 83 84 86 84 90 82 73 68 67 65 61 55 49 44 43 42 42 46 53 57
115 111 110 108 106 103 101 101 98 95 98 98 95 92 95 95 93 92 90 89 87 83 85 83 86 89 87 90 79 74 62 62 62 54 52 46 40 41 39 40 45 51 54
110 108 104 100 100 97 94 94 95 90 93 93 91 93 94 96 95 95 95 92 87 84 85 80 85 84 86 81 72 71 64 60 58 52 47 41 38 40 38 42 46 51 53
101 97 95 93 91 88 88 92 90 90 93 97 96 96 98 98 97 99 98 94 91 89 84 90 83 82 84 72 71 65 60 57 56 48 42 37 38 39 39 43 47 49 54
97 94 93 91 90 90 90 93 94 94 95 97 102 102 103 103 103 102 102 99 95 90 88 84 78 81 77 71 67 60 56 51 53 43 38 35 37 37 39 42 45 47 54
99 99 99 98 99 98 98 97 100 102 100 99 104 105 106 108 107 105 103 101 98 96 86 79 80 77 70 67 64 55 51 48 48 37 34 35 36 35 37 40 41 45 52
103 103 101 102 102 103 103 105 106 107 105 106 108 108 109 109 108 107 108 104 99 95 84 80 81 75 68 64 58 51 46 44 44 33 32 34 34 34 36 39 43 48 52
102 103 105 105 106 105 107 108 108 108 108 108 109 111 111 110 110 110 109 103 98 92 84 79 75 71 66 60 52 46 43 41 39 30 32 34 32 33 38 42 48 52 54
97 99 100 98 98 101 103 105 107 109 110 111 112 114 111 111 110 109 105 101 94 85 78 74 72 69 62 58 48 44 40 39 35 30 32 34 32 35 39 44 50 54 56
91 92 94 96 99 99 100 101 102 104 107 108 111 110 110 109 110 105 102 95 85 78 72 68 70 66 57 53 46 43 38 37 32 30 33 33 32 36 40 45 53 57 60
86 88 89 91 95 95 97 99 101 105 107 109 108 107 107 108 103 99 93 86 77 72 68 65 66 63 56 48 43 41 37 36 31 31 34 33 35 38 41 49 56 60 61
79 82 84 86 89 91 92 94 97 99 101 102 102 102 102 100 95 89 84 76 71 67 66 60 60 58 52 47 41 38 35 34 31 32 36 36 39 41 46 55 61 63 64
69 71 74 77 80 83 86 88 91 92 94 96 96 95 93 90 85 77 74 71 67 64 57 54 55 53 49 44 38 35 34 34 32 34 38 40 43 47 52 60 64 69 72

GFSGL_250_spd_003.txt.gz
Wind_Speed
92 95 100 99 99 97 95 92 92 95 97 98 99 102 98 97 98 96 99 103 99 100 105 105 107 108 108 103 97 96 98 99 101 92 99 103 98 101 99 101 100 99 93
91 93 99 104 107 109 109 108 102 103 100 98 97 100 97 98 99 98 99 103 105 105 105 106 112 104 100 95 93 93 96 100 104 100 99 103 104 104 104 102 104 95 85
99 101 103 107 110 111 112 112 110 105 102 100 98 97 99 99 98 99 100 105 105 109 107 104 102 97 95 92 92 92 95 98 104 101 98 102 98 106 103 107 98 89 77
106 106 105 111 114 115 111 109 105 100 101 97 99 99 99 99 100 102 106 110 108 105 103 100 96 92 94 94 92 92 93 97 100 101 101 95 101 104 103 104 87 81 82
108 103 106 106 109 112 111 103 100 101 105 102 102 101 104 103 104 106 107 107 105 102 97 98 95 93 92 91 91 91 92 93 96 99 97 97 99 101 105 103 84 83 76
106 102 101 102 110 114 106 104 105 106 107 106 103 106 112 113 116 107 101 96 97 96 94 92 92 92 90 89 90 88 91 91 92 93 93 100 101 105 96 93 81 74 76
101 101 104 108 113 109 110 112 110 110 115 113 116 122 123 119 109 99 97 95 94 92 90 92 92 93 90 88 89 87 89 89 90 90 91 98 104 104 94 90 86 74 72
111 108 108 108 112 115 116 114 117 118 122 124 130 133 113 102 99 96 95 94 95 95 94 95 94 92 91 90 87 86 86 86 86 88 93 97 108 101 91 83 79 71 72
112 111 112 114 116 119 121 120 127 126 130 132 129 112 102 99 97 95 95 96 96 97 97 93 89 90 93 91 87 81 81 84 84 89 94 100 101 95 89 78 75 69 69
125 120 123 124 124 125 123 127 131 132 129 129 113 105 101 98 100 100 97 95 93 91 89 91 91 90 90 86 81 77 77 80 82 85 93 100 97 94 87 72 67 63 64
131 127 125 123 126 126 127 129 125 120 115 112 108 103 101 103 100 97 96 94 91 89 91 92 91 90 84 81 79 76 76 78 80 85 92 96 93 86 80 70 61 59 59
119 120 119 121 122 119 119 114 113 114 112 112 110 108 104 102 101 98 97 93 89 91 92 91 87 85 81 80 79 79 80 81 81 86 92 88 86 78 75 66 62 55 52
113 117 118 117 115 113 115 115 116 115 112 110 108 107 104 103 100 99 97 97 92 91 91 87 84 81 79 79 77 77 77 78 79 86 87 79 80 74 68 60 58 51 50
110 114 115 115 115 115 115 117 115 113 111 108 106 103 101 102 99 99 96 97 92 89 90 86 80 77 77 75 75 80 80 78 81 84 78 74 74 70 61 54 53 48 48
113 114 116 117 116 115 110 109 105 103 103 101 102 101 97 99 100 97 97 95 94 92 92 85 79 74 71 70 77 78 78 80 83 78 73 71 70 64 58 52 47 48 46
107 109 109 108 109 104 97 98 96 97 98 99 102 97 97 96 100 100 99 96 95 95 95 89 84 76 71 78 80 84 84 82 80 72 70 69 65 58 56 48 44 46 43
103 105 101 102 106 107 108 104 99 97 99 99 100 100 95 98 100 101 104 103 100 100 97 91 85 83 80 81 84 84 82 84 73 66 64 65 60 54 50 45 43 43 38
102 101 102 104 107 112 112 112 108 106 103 103 103 102 100 105 105 107 107 106 104 102 99 95 90 85 83 83 86 82 83 75 65 61 59 61 53 51 45 42 42 37 36
99 97 96 100 101 105 110 113 111 109 111 112 110 106 105 108 111 111 110 106 106 105 102 96 89 87 85 86 82 81 80 65 61 59 57 56 46 47 40 40 38 34 36
94 92 95 97 99 99 103 103 103 104 107 111 111 112 110 111 111 111 110 108 108 106 104 95 90 86 86 83 83 81 75 64 61 55 53 50 43 42 38 37 34 33 37
93 95 96 99 98 97 96 97 101 101 100 104 107 107 109 110 109 111 110 109 107 107 103 93 91 87 83 80 79 75 70 62 54 52 50 45 39 38 35 33 33 33 37
89 92 94 94 94 91 94 96 96 97 99 99 101 104 106 106 107 107 106 105 106 105 97 93 90 86 80 77 74 72 67 62 51 47 47 41 37 36 33 32 33 33 37
85 87 88 88 88 87 89 91 92 92 92 93 95 98 100 100 101 101 103 104 103 100 94 91 87 80 77 74 69 63 61 57 48 44 46 37 36 34 31 32 34 34 38
76 77 77 79 79 79 82 84 85 87 89 90 91 92 93 94 96 98 99 99 96 92 90 82 76 74 71 69 64 60 54 49 44 41 43 36 35 32 31 33 33 35 38
69 69 68 69 70 72 75 76 77 80 82 83 85 87 88 91 92 93 92 90 87 82 76 72 70 68 65 63 58 57 52 44 41 39 39 34 34 31 32 34 34 37 39
63 63 64 64 65 67 68 68 69 70 72 74 75 76 78 79 81 82 81 79 77 74 71 68 63 60 60 57 57 52 48 40 38 36 37 32 33 31 33 36 37 39 44

GFSGL_250_spd_006.txt.gz
Wind_Speed
87 90 90 91 95 96 94 99 103 98 99 102 101 103 106 108 109 110 108 106 107 109 106 99 100 97 98 103 101 105 109 113 108 100 100 95 92 91 91 92 96 100 99
94 95 98 102 103 100 99 100 103 103 104 105 108 113 111 111 112 114 112 115 117 107 100 96 99 101 103 105 107 110 112 105 103 95 95 92 92 92 93 95 98 101 100
102 103 100 106 105 107 107 106 108 109 111 114 115 114 117 113 113 111 108 113 103 102 99 97 100 101 105 107 105 107 105 100 97 92 89 87 90 94 95 100 100 101 101
102 102 103 108 112 109 111 116 118 116 117 117 118 117 118 112 109 106 105 102 96 95 100 100 101 105 106 107 102 100 96 94 91 89 87 86 89 96 97 98 96 100 97
106 106 107 114 118 121 118 114 119 120 117 115 113 112 106 105 106 103 106 102 100 96 99 99 100 103 103 99 95 94 94 90 91 91 91 90 88 90 97 98 94 93 95
97 97 104 112 118 115 106 100 103 107 106 110 107 106 101 99 102 106 102 101 103 101 103 101 101 95 92 92 91 92 92 91 92 92 91 88 90 91 91 93 94 91 83
102 101 99 100 101 100 102 105 104 105 106 106 112 109 104 105 108 110 108 108 108 108 102 98 93 91 90 88 91 93 95 95 92 88 87 88 84 86 84 87 92 91 88
110 107 107 110 108 108 114 119 111 110 110 111 115 115 112 112 116 114 112 108 109 104 97 96 94 93 94 92 90 90 91 92 89 88 85 82 83 84 88 86 85 90 95
122 117 122 119 115 116 120 118 120 122 124 126 124 119 118 117 121 116 112 107 105 104 104 101 99 97 93 89 85 83 83 85 85 83 80 79 79 81 85 83 88 97 98
126 124 117 117 118 123 117 117 125 125 129 123 122 124 123 122 117 108 107 107 107 107 105 103 98 94 90 84 81 80 78 78 78 78 79 78 79 82 87 91 98 99 96
112 112 111 111 112 112 109 114 115 114 113 112 112 114 112 112 113 110 108 108 108 107 105 103 99 93 87 83 80 77 73 73 76 75 75 78 78 82 85 93 102 96 87
113 112 111 111 110 110 109 109 111 109 108 107 107 106 105 106 105 107 108 108 109 105 105 102 99 93 86 82 81 77 71 68 67 69 69 72 73 78 85 95 101 98 90
111 110 107 106 109 109 110 111 110 108 108 109 109 108 106 107 107 110 109 108 109 106 103 101 98 94 91 84 80 75 71 67 64 61 68 70 74 75 83 94 99 97 90
109 111 109 109 109 110 108 108 109 109 109 110 108 109 107 108 109 107 109 110 108 104 101 97 94 94 94 92 80 70 68 66 64 65 70 73 77 78 87 94 94 88 79
103 108 107 108 108 108 108 106 108 107 106 107 109 107 105 104 106 108 106 105 107 105 104 101 100 99 99 95 85 79 72 70 66 71 72 73 75 80 89 86 85 76 71
103 105 104 105 103 103 104 104 103 104 104 103 105 105 104 106 102 106 108 106 112 110 107 107 107 106 102 95 85 78 71 69 69 74 75 75 77 83 76 80 76 69 67
102 102 102 102 99 102 101 101 102 101 102 102 103 105 107 107 109 113 112 113 110 112 110 109 109 108 104 96 89 82 77 73 72 77 78 76 82 74 73 73 69 66 62
100 100 99 96 94 96 96 95 98 93 95 97 101 102 103 101 105 107 110 108 105 105 102 107 105 106 103 99 93 86 81 77 80 83 79 80 76 67 68 68 64 60 56
96 98 98 96 94 94 93 94 89 92 92 90 91 94 97 101 104 105 108 106 102 104 101 102 101 101 99 97 94 88 82 78 82 81 80 79 67 63 64 62 58 55 51
93 93 91 90 91 90 89 91 89 90 91 91 93 95 97 98 101 104 103 98 99 101 98 98 99 99 97 94 91 85 80 79 78 77 79 73 65 60 58 54 53 51 47
85 85 87 87 88 89 88 89 89 92 93 93 93 94 95 95 98 99 95 94 98 98 98 97 96 94 93 89 84 82 80 78 76 75 75 69 60 56 55 49 49 47 43
83 85 85 85 85 86 87 88 89 91 91 89 87 88 91 94 93 92 92 94 95 96 95 94 92 90 88 84 82 80 75 72 71 70 70 64 55 53 50 47 45 40 40
76 77 78 80 82 84 87 87 88 88 87 86 86 86 87 88 89 90 89 90 92 92 91 90 89 87 83 80 77 74 71 68 68 66 64 63 54 50 46 44 39 37 37
70 72 74 75 77 78 79 80 81 81 81 80 80 81 83 85 85 86 86 86 86 85 85 84 83 80 77 74 70 68 67 67 66 64 57 59 52 49 43 40 36 36 35
61 61 62 64 64 66 67 68 70 72 72 74 76 77 77 78 78 79 79 78 77 77 77 77 75 73 71 67 66 65 66 65 62 56 54 53 47 45 40 37 34 35 34
56 58 58 59 59 60 62 63 65 66 67 67 69 69 70 72 73 73 72 72 72 72 72 72 71 69 66 65 65 64 65 64 60 54 49 45 43 41 38 35 34 34 35

GFSGL_250_spd_009.txt.gz
Wind_Speed
99 102 99 91 89 91 90 93 96 98 98 99 98 100 104 106 106 109 109 107 104 107 110 109 111 113 113 112 111 109 108 107 101 100 100 101 103 103 105 107 108 104 101
103 101 107 104 101 100 102 101 99 106 104 105 104 108 108 109 113 114 112 115 114 114 116 117 116 115 117 117 118 112 107 106 101 102 99 102 100 104 108 99 100 96 95
113 104 103 107 107 108 107 107 109 107 109 109 108 110 115 116 114 116 118 120 122 118 120 124 122 122 121 118 109 106 106 109 106 107 101 101 102 103 98 94 94 94 95
118 106 104 108 111 111 114 115 114 114 112 115 116 115 117 121 121 119 120 122 125 123 118 119 123 112 104 99 102 102 105 101 104 101 96 93 94 95 93 94 94 95 95
110 108 110 114 113 115 113 114 114 117 116 118 117 116 120 124 127 127 125 122 124 118 114 104 100 103 104 108 105 105 102 98 94 91 90 88 89 90 91 95 94 94 95
106 113 106 108 111 107 109 115 116 113 120 109 106 107 112 111 118 123 121 113 110 108 106 108 102 108 109 104 100 97 95 90 88 90 91 90 91 93 94 94 92 91 90
110 110 104 100 98 98 99 101 109 118 114 114 111 107 111 109 109 113 107 106 107 107 106 102 96 104 103 102 95 93 92 88 90 92 93 93 92 93 90 90 91 89 88
117 114 112 114 111 108 104 108 103 112 111 111 110 112 111 119 114 112 109 109 108 107 105 98 103 100 96 98 94 94 92 93 91 92 90 92 88 87 87 85 86 84 84
122 121 124 123 120 122 121 117 117 120 126 124 126 125 124 124 116 118 114 111 109 110 106 108 104 102 101 101 99 96 97 95 94 91 90 90 87 83 84 82 84 82 79
113 118 127 134 135 130 130 130 127 128 124 121 117 118 113 116 112 115 112 114 114 112 109 108 108 107 106 106 104 102 97 97 93 90 90 85 83 81 83 85 82 80 84
114 111 109 111 115 116 119 119 120 119 116 112 111 112 110 111 114 116 110 110 113 112 111 109 109 109 109 109 106 101 99 93 91 87 84 79 74 76 79 82 81 81 82
112 110 111 109 108 109 112 115 114 112 111 111 111 112 113 114 111 109 107 109 112 113 113 110 111 111 108 107 106 103 96 90 89 85 81 80 72 66 66 73 77 81 84
106 106 106 106 107 108 109 110 107 108 108 106 107 108 110 109 111 110 111 111 113 113 113 111 112 110 110 109 107 102 95 92 89 84 81 74 65 60 66 69 74 77 81
103 106 104 102 105 105 108 111 109 107 106 105 107 107 109 110 111 112 113 113 113 113 111 111 111 110 108 108 106 99 96 93 90 88 79 69 64 63 70 71 72 78 79
98 102 102 101 103 103 105 106 106 106 106 107 109 110 109 108 108 111 111 113 109 109 108 109 108 108 107 107 106 104 102 99 97 97 88 77 71 69 75 77 77 79 88
99 97 98 99 99 100 101 103 103 105 103 103 104 104 104 104 105 106 106 106 106 108 107 109 107 110 111 111 110 111 107 103 102 95 89 80 66 73 80 80 79 83 93
97 96 97 99 98 98 96 98 98 100 97 97 101 102 103 105 105 107 109 107 109 110 112 114 113 107 115 114 113 113 108 102 98 93 91 81 70 73 77 76 79 84 91
93 95 96 96 96 95 96 97 98 96 93 90 97 100 102 104 103 110 109 106 104 109 114 111 111 111 116 112 110 103 97 94 92 89 85 75 70 74 74 76 83 85 81
85 84 88 90 89 92 93 94 93 93 91 89 93 96 96 95 97 98 101 96 100 105 105 104 103 105 106 104 100 97 94 90 88 85 83 74 72 76 75 80 84 83 74
80 79 80 80 83 86 91 90 91 91 88 89 88 90 89 92 93 92 92 97 101 101 100 100 102 102 104 98 99 97 93 89 86 85 80 73 76 78 77 80 80 70 68
79 79 79 80 81 83 82 86 86 84 83 81 83 84 87 89 90 93 96 97 97 99 100 101 103 102 99 97 95 94 94 88 83 84 78 75 75 77 79 80 69 63 65
77 79 78 78 78 80 78 81 82 80 80 78 79 83 86 85 89 93 94 94 92 94 96 99 99 98 96 95 93 93 92 87 83 80 78 76 75 75 76 74 65 62 62
68 70 72 73 73 73 73 74 73 72 73 76 79 80 83 86 87 89 92 91 89 91 94 95 96 96 95 93 91 90 86 82 79 76 74 73 72 72 71 69 63 58 57
62 63 66 67 68 69 70 70 70 70 73 76 78 82 82 83 86 88 89 89 89 89 91 91 91 90 88 86 85 83 80 78 75 72 70 69 70 70 68 64 60 57 50
57 58 59 62 64 65 67 68 69 71 73 76 77 79 80 83 84 85 85 84 84 84 84 83 82 82 81 80 79 78 75 74 73 70 70 69 69 69 63 59 56 54 47
50 52 53 55 57 59 61 62 63 65 67 68 70 72 74 75 75 76 77 77 77 76 76 77 78 77 76 76 75 75 73 72 70 70 70 68 68 64 56 55 53 49 46

GFSGL_250_spd_015.txt.gz
Wind_Speed
109 105 106 110 110 104 95 87 95 97 98 101 106 100 103 106 107 103 99 101 100 96 101 103 103 101 102 100 101 103 105 105 108 111 113 113 113 115 115 114 117 120 118
109 113 115 107 112 109 106 106 103 103 104 98 107 115 109 106 114 115 109 107 107 107 108 110 111 107 104 106 109 110 109 111 110 115 116 115 117 116 113 118 120 121 122
118 119 120 116 116 119 115 120 120 117 116 122 119 115 124 123 120 119 116 114 114 113 114 116 113 112 113 115 118 114 121 120 118 116 119 120 117 112 109 105 110 109 113
128 129 129 129 127 128 125 124 127 128 125 122 119 124 120 116 123 123 120 116 120 119 117 119 119 115 112 113 117 119 119 120 122 118 118 120 117 120 114 111 107 108 114
148 137 138 139 138 138 136 134 137 128 122 116 111 114 113 116 118 120 122 120 119 126 128 125 123 117 119 117 115 119 119 122 123 119 119 125 120 120 118 121 111 115 115
126 132 123 120 120 118 118 114 113 110 108 103 103 106 104 97 98 106 110 105 112 119 120 115 116 119 113 111 110 111 117 118 113 119 114 121 114 112 110 107 116 113 105
112 115 112 115 113 112 109 106 112 110 110 108 107 108 105 100 103 104 106 105 106 107 109 109 114 113 117 120 121 119 113 113 115 114 112 114 115 112 107 103 105 98 100
115 112 109 112 118 122 122 117 115 120 116 113 110 108 108 106 112 110 109 111 108 108 110 114 112 111 115 120 118 117 117 117 114 119 115 117 115 108 97 98 102 101 101
106 104 105 110 112 115 118 120 116 115 120 117 112 112 112 113 117 119 116 107 108 112 115 117 115 116 118 120 122 119 118 117 115 119 116 117 108 105 101 102 103 101 101
106 104 104 107 111 113 114 116 117 115 117 117 115 115 116 119 120 119 115 114 111 113 113 119 117 120 123 121 120 117 113 113 113 113 111 114 111 106 108 110 105 100 101
104 104 105 106 108 110 112 114 116 117 117 118 118 119 118 120 121 117 113 114 112 113 116 114 114 117 120 118 114 113 115 118 118 115 114 114 115 113 112 111 105 103 107
98 98 98 99 102 106 109 111 116 117 118 115 119 121 123 122 121 124 117 114 116 112 113 115 122 124 117 116 119 121 119 121 118 117 117 114 113 115 115 109 106 109 112
97 95 94 92 93 96 102 105 111 117 121 120 118 120 124 122 120 123 122 120 121 116 115 116 117 119 115 114 116 119 120 119 120 115 119 121 117 116 113 112 110 112 115
94 94 93 90 90 92 93 97 102 108 115 120 122 122 123 123 120 117 117 118 116 111 114 116 117 118 113 116 118 116 114 123 119 117 120 119 119 118 114 112 111 114 113
87 87 88 88 89 90 91 92 95 99 108 113 118 121 122 122 121 119 122 125 121 118 118 118 116 115 115 115 116 114 115 117 118 117 122 120 117 117 115 113 112 111 111
81 82 81 82 84 85 87 89 92 95 101 106 109 113 116 113 118 121 125 126 121 117 118 119 117 116 112 113 115 114 115 117 118 119 120 120 119 117 115 115 112 109 104
78 79 77 75 76 77 78 80 87 91 92 99 99 106 111 111 114 119 123 122 120 118 117 116 116 114 113 115 116 117 118 118 119 119 119 115 115 116 116 117 113 111 108
73 75 76 75 72 70 71 74 77 80 82 84 88 94 102 105 110 114 117 120 118 115 115 113 114 114 114 116 116 118 119 118 114 113 114 114 113 116 119 118 115 115 109
69 71 72 72 71 69 67 67 69 73 78 78 79 80 92 98 102 108 111 114 111 111 109 109 113 114 115 119 117 117 120 116 116 116 111 111 116 117 118 119 119 116 109
63 66 68 69 69 66 63 62 64 65 68 71 73 75 82 91 93 100 103 106 103 101 103 107 112 116 116 120 119 115 116 116 116 115 115 115 116 117 115 115 114 111 107
59 59 62 64 65 65 63 62 60 62 64 65 70 73 74 80 86 90 93 93 95 96 99 105 108 110 113 116 116 116 116 116 116 115 115 115 115 115 113 109 107 105 102
52 54 55 57 58 60 60 60 60 59 61 63 64 67 70 71 74 79 84 86 91 92 92 97 105 104 104 106 111 114 115 115 116 113 112 112 111 110 108 103 100 101 100
48 49 50 51 52 54 55 57 58 58 58 60 61 63 66 69 71 73 76 77 80 82 85 87 93 95 96 99 102 106 107 109 109 108 108 107 103 102 99 95 94 98 95
46 47 47 48 48 49 50 51 53 55 55 56 58 61 64 66 66 69 70 72 73 75 78 81 83 85 89 92 95 97 97 97 98 99 98 94 95 93 91 91 93 92 86
43 44 46 47 47 48 48 47 47 48 50 51 53 56 59 62 63 65 67 69 72 74 76 77 79 82 85 89 90 90 91 92 91 90 90 89 89 90 90 89 86 83 81
39 39 39 41 43 45 45 46 45 45 46 48 50 52 55 57 60 62 64 67 69 71 74 76 78 80 82 84 87 87 87 86 86 87 87 89 90 86 83 81 81 80 78